OpenBCM V2.0.2 (Linux)

Packet Radio Mailbox

IZ3LSV

[San Dona' di P. JN]

 Login: GUEST





  
LU9DCE > KEPS     11.01.18 19:56l 258 Lines 12942 Bytes #999 (0) @ LUNET
BID : 29083_LU9DCE
Read: GUEST
Subj: SAT TLE OF 11
Path: IZ3LSV<IQ2LB<IQ5KG<IK1NHL<CX2SA<N0KFQ<LU4ECL<LU4ADN<LU9DCE
Sent: 180111/1601Z @:LU9DCE.TOR.BA.ARG.SOAM #:29083 [TORTUGUITAS] FBB7.0.8-beta
From: LU9DCE@LU9DCE.TOR.BA.ARG.SOAM
To  : KEPS@LUNET


            __    _  _  ___  ____   ___  ____    ____  ____  ____
           (  )  / )( \/ _ \(    \ / __)(  __)  (  _ \(  _ \/ ___)
           / (_/\) \/ (\__  )) D (( (__  ) _)    ) _ ( ) _ (\___ \
           \____/\____/(___/(____/ \___)(____)  (____/(____/(____/
               ESTACION DE PACKET RADIO - BUENOS AIRES (GF05OM)
                   BOLETINES INFORMATIVOS PROGRAMADOS (BIP)
                    LU9DCE@GMX.COM - RF 147070 @ 1200 BAUD
                        https://lu9dce.wordpress.com/
                      telnet lu9dce.dynu.com port 6300

+------------------------------------------------------------------------------+
OSCAR 7
1 07530U 74089B   18010.88214153 -.00000028  00000-0  10133-3 0  9997
2 07530 101.6640 340.7110 0011840 280.7165 133.9025 12.53630636974888
OSCAR 11 (UoSAT 2)
1 14781U 84021B   18011.19370882  .00000046  00000-0  11831-4 0  9993
2 14781  97.6710  53.9231 0007336 231.7725 128.2830 14.82972478821177
OSCAR 19 (LUSAT)
1 20442U 90005G   18010.88792422 +.00000005 +00000-0 +17826-4 0  9991
2 20442 098.5962 310.4733 0010659 253.4670 106.5343 14.32883868461309
KITSAT B
1 22825U 93061C   18010.93164016 -.00000001 +00000-0 +17270-4 0  9991
2 22825 098.8422 344.3757 0009474 085.7209 274.5055 14.30018855266829
POSAT 1
1 22826U 93061D   18010.91487082 +.00000010 +00000-0 +21423-4 0  9995
2 22826 098.8363 344.4160 0009989 076.6916 283.5379 14.30349521267027
RADIO ROSTO
1 23439U 94085A   18010.90913699 -.00000043 +00000-0 -16508-4 0  9996
2 23439 064.8144 243.2013 0162274 209.9295 238.7924 11.27566315948837
JAS 2
1 24278U 96046B   18011.17135911 -.00000054  00000-0 -20870-4 0  9999
2 24278  98.5314 231.4282 0350765 158.0984 203.5577 13.53080417 57001
TECHSAT 1B
1 25397U 98043D   18011.02116152 -.00000014  00000-0  13008-4 0  9991
2 25397  98.6342 314.1984 0002315 103.0755 257.0682 14.23637724 13364
ISS (ZARYA)
1 25544U 98067A   18010.68703565 +.00005051 +00000-0 +83015-4 0  9992
2 25544 051.6423 083.8911 0003400 359.0210 136.7765 15.54290053094024
PCSAT
1 26931U 01043C   18011.18256746 -.00000049  00000-0  12836-4 0  9997
2 26931  67.0515 274.5271 0005245 276.1090  83.9414 14.30490251850096
SAUDISAT 1C
1 27607U 02058C   18011.02978185 -.00000010  00000-0  19197-4 0  9991
2 27607  64.5536 210.3875 0046079   7.9586 352.2237 14.75410816809772
CUTE-1
1 27844U 03031E   18010.91892737 +.00000060 +00000-0 +46935-4 0  9995
2 27844 098.6886 021.8857 0010795 105.3770 254.8601 14.22087849753802
CUBESAT XI 4
1 27848U 03031J   18010.55315095  .00000037  00000-0  36697-4 0  9994
2 27848  98.6975  21.8677 0010641 115.3154 244.9127 14.21695368753669
MOZHAYETS 4
1 27939U 03042A   18011.20736406  .00000103  00000-0  26951-4 0  9999
2 27939  97.9658 154.6331 0011684 287.9357 195.1410 14.66648017763808
CUBESAT XI 5
1 28895U 05043F   18010.89037386 +.00000141 +00000-0 +35946-4 0  9995
2 28895 097.8856 168.9308 0016389 202.5924 157.4559 14.63496500650637
CUTE-1.7+APD II
1 32785U 08021C   18010.83590220 +.00000205 +00000-0 +27926-4 0  9992
2 32785 097.5541 030.4786 0012707 193.8971 166.1898 14.88043484525770
DELFI C3
1 32789U 08021G   18010.76156420 +.00001449 +00000-0 +10435-3 0  9995
2 32789 097.5348 069.4183 0014021 113.6526 246.6174 15.05666283527994
SEEDS
1 32791U 08021J   18010.64232750 +.00000225 +00000-0 +28453-4 0  9997
2 32791 097.5472 035.2666 0013504 176.7762 183.3546 14.90441369525963
YUBELEINY
1 32953U 08025A   18010.77270354  .00000009  00000-0 -53779-5 0  9998
2 32953  82.5041 110.5840 0019476 190.2732 169.7953 12.43080894437210
PRISM (HITOMI)
1 33493U 09002B   18010.99988738  .00001152  00000-0  10803-3 0  9998
2 33493  98.1458 266.9290 0016559 112.3248 247.9732 14.96039857486846
KKS-1 (KISEKI)
1 33499U 09002H   18010.89733257 +.00000133 +00000-0 +27766-4 0  9992
2 33499 098.3457 187.6207 0010398 075.7059 284.5303 14.75283114481566
SWISSCUBE
1 35932U 09051B   18010.94150471 +.00000129 +00000-0 +40163-4 0  9998
2 35932 098.5214 158.5411 0007083 340.8336 019.2594 14.56109401440518
BEESAT
1 35933U 09051C   18010.91152003  .00000115  00000-0  36932-4 0  9993
2 35933  98.5254 159.9558 0005587 357.7476   2.3695 14.56218460440655
ITUPSAT 1
1 35935U 09051E   18010.94649551 +.00000094 +00000-0 +32691-4 0  9991
2 35935 098.5366 160.2462 0007753 348.4980 011.6038 14.55401755440423
XIWANG-1 (HOPE-1)
1 36122U 09072B   18010.91014691 -.00000032 +00000-0 +27169-4 0  9998
2 36122 100.0855 032.8459 0008111 114.1407 246.0556 13.16342954387852
TISAT 1
1 36799U 10035E   18010.91643055 +.00000419 +00000-0 +48774-4 0  9994
2 36799 098.0841 143.2106 0012413 011.1187 349.0302 14.90664152406529
JUGNU
1 37839U 11058B   18011.12150477  .00000298  00000-0  16891-4 0  9991
2 37839  19.9609 269.6620 0018865 315.3543 196.1881 14.12606019323135
SRMSAT
1 37841U 11058D   18010.20432550  .00000298  00000-0  18312-4 0  9997
2 37841  19.9731 321.1679 0011883 194.4399 297.4235 14.10595821322548
M-CUBED/EXP-1 PRIME
1 37855U 11061F   18010.89523807 +.00001211 +00000-0 +70197-4 0  9992
2 37855 101.7214 352.9547 0177909 187.5542 172.2983 15.03972035337534
HORYU 2
1 38340U 12025D   18010.95096741 +.00000200 +00000-0 +37476-4 0  9992
2 38340 098.3749 027.2016 0011461 357.5480 002.5670 14.75481554293517
STRAND 1
1 39090U 13009E   18010.80889201  .00000030  00000-0  25898-4 0  9999
2 39090  98.5339 219.0979 0010039  49.0287 311.1766 14.35006120255256
BEESAT 3
1 39134U 13015E   18010.90876356 +.00001023 +00000-0 +58314-4 0  9995
2 39134 064.8636 275.4997 0029434 230.8763 128.9747 15.18705195260636
SOMP
1 39135U 13015F   18011.13882975  .00000778  00000-0  49756-4 0  9992
2 39135  64.8699 286.1080 0030606 255.3353 104.4378 15.16309805260835
BEESAT 2
1 39136U 13015G   18010.92225594 +.00000614 +00000-0 +41976-4 0  9992
2 39136 064.8702 289.1750 0031194 253.5301 106.2396 15.15793466260361
CUBEBUG 1
1 39153U 13018D   18011.22466125  .00000189  00000-0  31691-4 0  9995
2 39153  97.9822 107.4053 0018395  94.9524 265.3788 14.80322703254379
ZACUBE
1 39417U 13066B   18011.15129671  .00000208  00000-0  32830-4 0  9993
2 39417  97.6057  48.0268 0058000 310.3541  49.2615 14.80857406223555
TRITON 1
1 39427U 13066M   18010.94509732 +.00000223 +00000-0 +43505-4 0  9998
2 39427 097.6365 017.3551 0115165 043.7160 317.3095 14.67595170221328
GOMX 1
1 39430U 13066Q   18010.91474650  .00000237  00000-0  51511-4 0  9990
2 39430  97.6807 359.2841 0153004 106.8964 254.9076 14.59002965220229
HUMSAT D
1 39433U 13066T   18010.74877487 +.00000227 +00000-0 +27929-4 0  9994
2 39433 097.6272 072.4622 0029759 245.4333 114.3784 14.91714239224957
50 SAT
1 39436U 13066W   18010.86877414  .00050326  00000-0  74772-3 0  9992
2 39436  97.7112 134.3690 0005429  45.3242 314.8453 15.55018732228704
CUBEBUG 2
1 39440U 13066AA  18011.09528329  .00000224  00000-0  38425-4 0  9999
2 39440  97.6115  35.5896 0080189 346.6785  13.2307 14.75595113222757
FUNCUBE 1
1 39444U 13066AE  18011.16121158  .00000247  00000-0  37183-4 0  9995
2 39444  97.6071  49.3602 0057114 306.2027  53.3913 14.81619473222406
UWE-3
1 39446U 13066AG  18011.04852033  .00000202  00000-0  33788-4 0  9995
2 39446  97.6074  41.3899 0069489 329.1961  30.5181 14.78128020221907
SPROUT
1 39770U 14029E   18011.17305948  .00000482  00000-0  60459-4 0  9992
2 39770  97.8755 113.6098 0009272  14.3195 345.8302 14.86623546197030
UNISAT 6
1 40012U 14033C   18011.17615078  .00000161  00000-0  31701-4 0  9998
2 40012  97.8299 253.0459 0058308 346.2858  13.6764 14.73749282191578
DUCHIFAT 1
1 40021U 14033M   18010.80599973 +.00000347 +00000-0 +41703-4 0  9991
2 40021 097.9175 289.2421 0012700 343.6027 016.4778 14.90165452193519
QB50P1
1 40025U 14033R   18011.19934664  .00000231  00000-0  30803-4 0  9999
2 40025  97.9092 286.8905 0012251 348.0923  12.0002 14.88614027193433
CHUBUSAT 1
1 40300U 14070C   18011.16031684  .00000543  00000-0  27198-4 0  9992
2 40300  97.3795  92.1217 0022075  92.3946 323.8343 15.21335856176403
NUDT-PHONESAT
1 40900U 15049B   18010.93782567 +.00002003 +00000-0 +94266-4 0  9995
2 40900 097.4427 021.0750 0012682 214.0124 146.0300 15.20645572128019
ZDPS 2A
1 40901U 15049C   18011.08312637  .00000830  00000-0  45591-4 0  9993
2 40901  97.4586  19.9219 0012713 218.7254 141.3069 15.16792175127849
ZDPS 2B
1 40902U 15049D   18011.16819696  .00000758  00000-0  42133-4 0  9998
2 40902  97.4472  18.2949 0012888 215.3323 144.7057 15.16603270127840
XW-2A
1 40903U 15049E   18011.14534733  .00001757  00000-0  46288-4 0  9998
2 40903  97.4027  44.3333 0013036 232.8447 127.1609 15.39876832129639
KAITUO 1A
1 40904U 15049F   18011.13930446  .00000711  00000-0  41695-4 0  9995
2 40904  97.4571  17.6993 0013474 218.4615 228.8663 15.14845361127725
OBJECT G
1 40905U 15049G   18011.17034150  .00000389  00000-0  25101-4 0  9992
2 40905  97.4552  16.0732 0015028 208.9965 151.0433 15.13826339127666
XW-2C
1 40906U 15049H   18011.06517242  .00000632  00000-0  37369-4 0  9999
2 40906  97.4577  17.4859 0014257 209.2944 150.7491 15.14968291127703
XW-2D
1 40907U 15049J   18010.96637212  .00000664  00000-0  38917-4 0  9993
2 40907  97.4549  17.1078 0013663 207.2214 152.8303 15.15102742127696
LILACSAT 2
1 40908U 15049K   18010.92064682 +.00000325 +00000-0 +21811-4 0  9994
2 40908 097.4656 016.6177 0015270 208.2272 151.8133 15.13378283127582
XW-2F
1 40910U 15049M   18010.96691990  .00000977  00000-0  53924-4 0  9992
2 40910  97.4559  18.1415 0014500 203.9755 156.0804 15.16186466127622
XW-2B
1 40911U 15049N   18011.04443295  .00000653  00000-0  38386-4 0  9992
2 40911  97.4588  17.6590 0013577 207.4172 152.6346 15.15053067127608
